GFSFLT1_700_temp_192.txt.gz
Temp
8 7 7 7 9 8 7 6 6 6 8 8 8 8 8 8 8 8 8 8 7 6 6 6 5 5 5 5 5 5 4 4
7 7 8 7 7 8 9 8 6 6 7 8 8 8 7 7 7 7 6 7 7 5 5 4 5 5 4 4 4 4 4 4
7 7 7 8 7 7 7 7 7 6 6 6 8 8 8 7 8 7 7 6 6 6 5 5 5 5 4 4 4 4 4 4
7 7 7 7 7 7 7 8 7 5 5 6 5 6 8 8 7 7 7 7 6 6 6 4 5 6 5 4 3 3 3 4
6 6 6 5 6 6 6 6 6 6 5 5 6 5 4 7 7 6 6 6 6 6 6 4 4 4 5 5 5 4 4 3
5 4 3 3 3 4 3 3 3 2 2 3 4 5 5 3 5 6 4 5 5 5 6 5 4 4 4 5 5 5 4 4
2 2 2 1 1 -0 -0 0 1 2 2 2 2 3 3 3 2 4 5 5 4 3 4 4 3 4 3 4 4 4 4 4
1 1 -0 -1 -2 -2 -1 -1 -2 -3 -2 0 1 2 2 2 2 2 1 3 4 4 3 3 3 3 3 3 3 2 4 4
-0 -0 -1 -1 -2 -2 -3 -2 -1 -2 -2 -0 0 -1 -1 1 -0 -0 0 2 2 4 1 2 1 2 3 3 3 3 3 2
-1 -1 -2 -2 -3 -3 -3 -4 -3 -1 -2 -2 -1 -1 -2 -1 -1 -2 -3 -0 1 2 1 2 2 2 2 3 2 3 2 2
-1 -2 -2 -3 -3 -3 -4 -4 -4 -4 -1 -2 -2 -1 -1 -1 -1 -2 -2 -2 -0 -1 1 2 2 2 2 2 2 1 2 2
-2 -2 -2 -3 -3 -4 -4 -5 -5 -3 -2 -2 -2 -2 -2 -1 -1 -1 -2 -3 -1 -0 1 1 1 1 1 2 2 2 2 2
-2 -3 -3 -4 -5 -5 -5 -5 -5 -4 -4 -3 -3 -2 -1 -1 -0 -1 -2 -3 -2 -0 -1 1 1 1 1 2 1 1 0 1
-3 -4 -4 -5 -5 -5 -4 -4 -4 -5 -4 -3 -3 -2 -1 -1 -1 -1 -3 -3 -2 -2 -1 -0 0 0 1 1 -0 -0 0 1
-5 -5 -5 -6 -6 -5 -5 -4 -4 -4 -4 -3 -3 -2 -1 -1 -2 -2 -4 -4 -4 -3 -2 -1 -1 0 0 -1 -1 -1 -1 -1
-5 -6 -6 -6 -6 -6 -6 -5 -4 -4 -4 -3 -3 -3 -2 -2 -3 -3 -4 -4 -4 -4 -2 -2 -2 -2 -1 -1 -2 -2 -2 -2
-6 -6 -6 -6 -6 -6 -5 -4 -4 -4 -4 -3 -4 -4 -3 -4 -3 -4 -5 -5 -4 -4 -3 -3 -3 -2 -2 -2 -2 -3 -3 -4
-6 -6 -6 -6 -5 -6 -5 -5 -5 -5 -5 -4 -5 -5 -3 -3 -4 -5 -5 -5 -5 -5 -4 -4 -3 -3 -3 -3 -4 -5 -5 -5
-6 -6 -6 -6 -6 -6 -6 -5 -5 -5 -5 -5 -5 -4 -3 -4 -4 -5 -6 -6 -6 -6 -5 -5 -4 -4 -5 -6 -6 -6 -6 -6

GFSFLT1_700_temp_195.txt.gz
Temp
8 8 8 7 8 8 8 8 8 7 9 8 7 7 7 7 7 6 6 6 7 7 6 5 5 4 4 5 4 3 3 3
8 8 8 8 7 7 8 7 7 7 6 7 8 7 6 6 6 7 7 6 5 5 5 7 6 4 3 4 4 4 3 3
8 8 8 8 7 7 6 6 6 6 6 6 7 7 8 7 6 6 5 4 4 5 4 3 4 4 5 3 3 4 3 3
8 8 8 8 8 8 8 7 6 7 7 6 5 5 5 5 5 6 4 4 4 3 4 4 4 4 4 4 3 4 4 3
8 7 7 7 7 7 6 7 7 6 6 6 5 5 4 4 4 4 5 5 4 3 3 4 2 3 2 3 3 2 4 3
6 6 6 6 6 6 6 6 5 5 4 4 3 3 3 3 3 3 2 3 4 3 3 2 2 3 3 3 4 4 2 4
6 6 6 6 5 4 3 2 2 2 0 -1 -2 -0 1 1 2 2 1 1 1 2 3 1 2 1 3 2 3 2 3 3
3 3 2 2 1 1 2 1 0 -1 -2 -2 -2 -1 -0 -1 -0 0 1 0 0 -0 -1 -0 0 0 1 1 1 3 3 3
0 0 0 0 0 -0 -1 -1 -2 -2 -2 -3 -2 -1 -2 -3 -3 -2 -1 -1 -1 -1 -1 -1 -2 -2 -1 1 1 1 2 3
0 -0 0 -0 -0 -0 -2 -2 -2 -2 -2 -3 -4 -5 -3 -2 -2 -2 -2 -1 -1 -1 -1 -1 -1 -0 0 -1 1 1 1 2
1 0 -1 -1 -1 -2 -2 -2 -2 -2 -3 -5 -5 -5 -5 -3 -2 -2 -2 -2 -1 -1 -0 -1 -1 -1 -0 1 -1 2 1 2
-1 -2 -1 -1 -2 -2 -1 -1 -2 -3 -3 -3 -3 -4 -4 -4 -4 -4 -2 -2 -2 -1 -1 -2 -2 -1 -0 -2 -1 -0 1 1
-0 0 -1 -1 -1 -1 -1 -3 -3 -4 -4 -3 -3 -3 -3 -4 -4 -4 -3 -3 -1 -0 -1 -1 -1 -2 -3 -3 -2 -1 0 1
-2 -3 -2 -3 -2 -3 -4 -4 -4 -3 -3 -3 -3 -3 -4 -4 -4 -4 -4 -3 -1 -1 -2 -1 -2 -2 -3 -1 -1 -1 -0 -0
-3 -3 -3 -2 -4 -5 -5 -4 -3 -3 -3 -3 -4 -4 -5 -5 -5 -4 -4 -4 -2 -2 -3 -3 -4 -3 -3 -3 -2 -1 -1 0
-3 -3 -4 -5 -5 -5 -4 -4 -4 -4 -3 -4 -4 -5 -5 -5 -4 -5 -5 -4 -3 -3 -5 -4 -5 -4 -4 -4 -2 -3 -2 -2
-3 -4 -5 -6 -5 -5 -5 -4 -4 -4 -3 -4 -5 -5 -6 -5 -4 -5 -4 -4 -5 -6 -5 -4 -4 -5 -4 -4 -3 -4 -4 -3
-4 -6 -6 -6 -5 -5 -5 -4 -4 -5 -5 -5 -5 -5 -4 -4 -5 -5 -5 -5 -6 -6 -5 -6 -6 -6 -5 -5 -5 -5 -5 -4
-6 -6 -6 -6 -5 -6 -5 -6 -5 -5 -4 -5 -5 -5 -4 -5 -5 -4 -5 -6 -6 -6 -6 -7 -7 -6 -6 -6 -6 -6 -6 -6

GFSFLT1_700_temp_198.txt.gz
Temp
9 9 9 8 8 8 8 7 7 8 8 8 8 7 6 6 7 6 6 5 5 5 5 6 5 5 3 3 4 3 4 4
9 9 9 8 8 8 7 7 8 7 7 7 8 8 8 8 7 7 6 5 5 5 5 5 4 4 4 3 3 3 2 4
9 9 9 9 8 8 8 7 8 7 7 7 7 7 7 7 7 6 5 5 4 4 4 4 4 4 3 4 3 4 3 3
8 8 8 8 8 8 8 7 8 7 7 6 6 6 5 5 5 5 6 6 5 4 4 4 3 3 4 3 3 3 4 3
7 7 7 8 8 7 7 7 7 6 7 6 6 6 5 5 5 5 4 4 4 5 4 3 3 3 3 3 3 3 3 3
6 6 7 7 7 7 7 7 6 6 6 7 7 6 5 5 4 4 3 2 2 2 3 3 2 1 2 3 2 2 2 1
5 5 5 6 6 6 6 6 6 6 5 4 2 2 2 2 1 -0 0 0 1 0 -1 -1 -0 -0 -0 0 0 2 2 1
4 4 5 5 5 5 6 5 5 4 2 1 1 0 -0 -1 -1 -0 -1 -1 -1 -0 -0 -1 -1 -1 -0 -0 -0 -1 -0 1
4 4 5 5 5 4 3 3 2 2 0 -0 -1 -1 -1 -1 -2 -2 -1 -1 -2 -2 -2 -1 -1 -1 -1 -1 -1 -1 -0 -2
4 3 3 3 2 2 2 1 1 -1 -1 -2 -1 -1 -2 -2 -2 -3 -2 -3 -2 -2 -2 -2 -2 -1 -1 -1 -1 -1 -1 -1
1 1 1 1 2 1 0 -0 -1 -1 -1 -1 -1 -1 -2 -2 -2 -2 -3 -3 -3 -3 -2 -3 -3 -3 -2 -1 -1 -1 -1 -1
1 1 0 0 1 1 -1 -1 -1 -1 -1 -1 -2 -3 -3 -2 -2 -2 -3 -3 -3 -3 -4 -3 -4 -3 -2 -2 -2 -1 -2 -1
0 1 1 2 2 -0 -1 -1 -2 -2 -2 -3 -3 -3 -3 -3 -3 -3 -4 -4 -4 -4 -4 -4 -4 -3 -2 -3 -2 -2 -2 -2
0 1 2 1 -1 -1 -2 -2 -2 -2 -3 -3 -3 -3 -4 -4 -3 -4 -4 -4 -4 -5 -5 -4 -3 -3 -3 -3 -3 -1 -2 -4
1 1 -0 -2 -2 -2 -3 -2 -3 -3 -4 -4 -4 -4 -4 -4 -4 -4 -4 -5 -4 -4 -4 -4 -5 -5 -4 -4 -4 -3 -3 -3
-1 -2 -2 -2 -3 -3 -3 -3 -4 -4 -4 -4 -4 -4 -4 -4 -4 -4 -5 -4 -4 -4 -5 -5 -5 -6 -6 -5 -5 -4 -3 -4
-3 -3 -3 -3 -3 -3 -4 -4 -5 -5 -5 -5 -4 -4 -4 -4 -4 -4 -4 -4 -4 -5 -5 -6 -6 -6 -6 -5 -6 -5 -4 -4
-3 -3 -3 -3 -4 -4 -4 -5 -5 -5 -5 -4 -4 -4 -5 -4 -4 -4 -4 -4 -5 -5 -6 -7 -6 -6 -5 -6 -5 -5 -5 -5
-3 -4 -4 -4 -4 -4 -5 -5 -5 -5 -4 -4 -5 -5 -5 -4 -4 -4 -4 -5 -6 -6 -7 -7 -7 -6 -6 -6 -6 -7 -7 -6

GFSFLT1_700_temp_201.txt.gz
Temp
9 9 9 9 9 8 8 8 8 7 7 7 7 8 8 7 7 7 7 6 5 5 5 5 5 5 5 4 4 4 4 3
9 9 9 9 9 8 8 8 7 7 8 8 8 7 7 6 6 6 6 6 5 6 5 5 5 4 4 4 3 3 3 3
9 9 8 8 8 8 8 8 7 7 7 7 7 6 6 6 6 6 5 5 5 5 5 5 4 4 4 4 4 3 3 3
9 8 8 8 8 8 7 7 7 7 7 7 6 6 5 5 5 5 5 5 5 5 5 5 5 4 4 3 3 2 3 3
8 7 7 8 8 7 7 6 6 6 6 6 6 6 6 6 6 6 6 5 4 3 3 3 4 3 3 2 2 2 3 2
7 6 6 6 7 6 6 6 6 6 6 6 6 6 6 6 6 7 6 6 4 3 2 2 1 1 2 2 1 1 1 1
6 5 5 5 5 5 5 5 5 5 5 5 6 6 6 6 6 5 5 4 3 2 1 1 0 0 -0 -0 -0 -1 -1 -1
5 5 4 4 4 5 5 5 5 5 6 6 6 6 6 6 5 5 3 3 1 0 0 -0 -0 -0 -0 -1 -1 -1 -1 -1
4 3 3 4 4 4 4 5 4 4 4 4 5 4 3 2 2 1 1 -0 -1 -1 -1 -1 -1 -1 -1 -1 -1 -2 -3 -2
2 2 2 3 3 3 3 3 3 3 4 3 2 1 1 0 -0 -0 -1 -1 -1 -1 -1 -1 -1 -1 -2 -2 -3 -3 -2 -3
2 2 2 2 2 2 2 3 3 2 2 1 1 0 -1 -1 -1 -1 -1 -1 -1 -2 -2 -2 -2 -3 -3 -3 -4 -3 -3 -3
1 1 1 1 1 1 2 1 1 1 0 -1 -1 -1 -2 -2 -2 -2 -3 -3 -3 -3 -3 -3 -3 -3 -4 -4 -4 -4 -4 -5
1 1 1 1 1 1 1 -0 -0 -1 -2 -1 -1 -2 -1 -1 -2 -3 -4 -4 -3 -3 -3 -4 -4 -5 -5 -5 -5 -5 -5 -4
1 1 1 1 1 -0 -0 -1 -2 -2 -2 -2 -2 -2 -2 -2 -3 -4 -3 -3 -3 -3 -4 -4 -5 -5 -4 -4 -4 -4 -4 -4
1 -0 0 0 -0 -1 -1 -2 -2 -2 -2 -2 -2 -2 -3 -4 -3 -3 -3 -3 -3 -4 -5 -4 -4 -4 -5 -4 -4 -4 -3 -3
-1 -1 -1 -1 -1 -2 -2 -2 -2 -2 -2 -2 -2 -3 -4 -4 -4 -4 -4 -4 -5 -5 -4 -4 -4 -5 -5 -6 -7 -6 -6 -6
-1 -1 -1 -1 -2 -2 -3 -3 -3 -3 -3 -3 -3 -4 -4 -4 -4 -4 -4 -4 -4 -4 -4 -4 -4 -5 -6 -7 -7 -7 -6 -6
-1 -1 -1 -2 -3 -3 -3 -3 -3 -3 -3 -3 -4 -4 -4 -4 -4 -5 -4 -4 -4 -3 -4 -5 -5 -6 -7 -7 -6 -6 -6 -5
-2 -3 -3 -3 -3 -3 -4 -4 -3 -3 -3 -4 -4 -4 -4 -4 -4 -4 -4 -4 -3 -4 -5 -6 -6 -7 -7 -7 -6 -6 -6 -6

GFSFLT1_700_temp_204.txt.gz
Temp
9 9 9 9 9 9 8 8 8 8 7 7 6 7 7 6 6 6 6 6 6 6 6 6 6 6 5 5 5 4 4 4
9 9 9 9 8 8 8 8 8 8 7 7 7 7 7 6 6 6 6 6 6 6 6 6 6 6 6 6 5 5 4 4
9 9 9 9 8 8 8 8 8 8 7 7 7 7 7 7 6 6 5 5 5 5 5 5 5 5 5 5 6 4 4 3
9 9 9 9 8 8 8 7 7 7 7 7 7 7 6 6 5 5 5 5 5 5 5 5 5 4 4 4 4 3 2 2
9 9 9 9 8 7 7 7 6 6 6 6 6 6 5 5 4 5 5 6 6 6 5 4 3 3 2 2 2 2 2 1
8 8 8 8 7 7 6 6 5 5 5 5 5 5 5 5 5 6 6 6 6 6 5 4 3 2 2 1 1 1 1 1
7 6 6 7 6 5 5 5 4 4 4 4 4 5 5 5 5 5 5 6 5 4 3 2 1 1 1 0 0 0 -0 -0
6 6 6 6 5 4 4 4 4 4 4 4 4 5 4 5 5 5 5 5 4 3 1 1 0 -0 -1 -1 -1 -0 -0 -1
5 4 4 3 3 3 3 3 3 4 4 4 3 4 4 5 5 5 4 3 2 2 1 0 -0 -1 -1 -2 -2 -2 -2 -2
4 3 3 3 2 3 3 3 3 3 2 3 3 4 4 4 4 3 3 2 1 1 0 0 -1 -2 -3 -3 -3 -3 -3 -3
3 3 2 2 2 2 2 2 2 2 2 3 3 3 4 3 2 1 1 0 0 -0 -1 -2 -3 -3 -3 -3 -3 -3 -4 -4
3 2 1 1 1 2 1 1 2 2 2 2 2 2 2 1 0 -0 -0 -0 -1 -2 -2 -2 -2 -2 -3 -3 -3 -4 -4 -4
2 1 1 1 1 1 1 1 1 1 1 1 1 1 0 -0 -0 -1 -1 -1 -2 -2 -2 -2 -3 -3 -3 -4 -4 -4 -4 -4
1 1 0 0 0 0 1 0 0 0 1 0 -0 -0 -1 -1 -1 -1 -2 -2 -2 -2 -3 -3 -3 -3 -3 -3 -4 -4 -5 -5
1 0 0 0 -0 -0 -0 -0 -0 -0 -1 -1 -1 -2 -2 -1 -1 -2 -2 -3 -3 -3 -3 -2 -3 -3 -3 -4 -4 -5 -5 -6
0 -0 -0 -0 -1 -1 -1 -1 -1 -2 -2 -2 -2 -2 -2 -2 -2 -3 -3 -3 -3 -3 -2 -3 -3 -4 -4 -4 -5 -6 -7 -7
-0 -0 -1 -1 -1 -2 -3 -2 -3 -2 -2 -2 -2 -2 -2 -2 -3 -3 -4 -4 -3 -3 -2 -3 -4 -5 -4 -6 -7 -8 -8 -7
-0 -1 -1 -2 -3 -3 -3 -3 -3 -2 -2 -2 -2 -2 -2 -3 -3 -3 -4 -4 -4 -3 -3 -5 -5 -6 -6 -7 -7 -8 -8 -7
-2 -2 -3 -2 -3 -3 -3 -3 -3 -3 -3 -3 -2 -3 -3 -3 -3 -4 -3 -4 -4 -5 -6 -6 -6 -7 -6 -7 -8 -8 -8 -7